Weather History for Pine Bluff, AR

Change the Weather History Date:

Wednesday, August 21, 2013

  Actual Average Record
Temperature  
Mean Temperature 81 °F 81 °F  
Max Temperature 94 °F 92 °F 104 °F (1899)
Min Temperature 68 °F 70 °F 57 °F (1956)
Degree Days  
Heating Degree Days 0 0  
Month to date heating degree days 0 0  
Since 1 June heating degree days 0 0  
Since 1 July heating degree days 0 0  
Cooling Degree Days 16 16  
Month to date cooling degree days 324 351  
Year to date cooling degree days 1481 1608  
Since 1 June cooling degree days 1214 1301  
Growing Degree Days 30 (Base 50)    
Moisture  
Dew Point 70 °F    
Average Humidity 69    
Maximum Humidity 93    
Minimum Humidity 44    
Precipitation  
Precipitation 0.00 in 0.07 in 1.03 in (1894)
Month to date precipitation 2.96 1.80  
Year to date precipitation 33.63 32.51  
Snow  
Snow 0.00 in 0.00 in - ()
Month to date snowfall 0.0 0.0  
Since 1 June snowfall 0.0 0.0  
Since 1 July snowfall 0.0 0.0  
Snow Depth 0.00 in    
Sea Level Pressure  
Sea Level Pressure 30.07 in    
Wind  
Wind Speed 2 mph (SE)    
Max Wind Speed 9 mph    
Max Gust Speed 12 mph    
Visibility 10 miles    
Events      
T = Trace of Precipitation, MM = Missing Value Source: NWS Daily Summary

Daily Weather History Graph

Daily Weather History Graph

Search for Another Location

Airport:

Trip Planner

Search our weather history database for the weather conditions in past years. The results will help you decide how hot, cold, wet, or windy it might be!

Date:

Astronomy

Aug. 21, 2013 Rise Set
Actual Time 6:33 AM CDT 7:47 PM CDT
Civil Twilight 6:07 AM CDT 8:13 PM CDT
Nautical Twilight 5:36 AM CDT 8:44 PM CDT
Astronomical Twilight 5:03 AM CDT 9:16 PM CDT
Moon 8:02 PM CDT (8/21) 7:09 AM CDT (8/21)
Length of Visible Light 14h 06m
Length of Day
13h 13m
Waxing Gibbous, 99% of the Moon is Illuminated
Aug 21
Waxing Gibbous
Aug 28
Last Quarter
Sep 5
New
Sep 12
First Quarter
Sep 19
Full

Hourly Weather History & Observations

Time (CDT) Temp. Heat Index Dew Point Humidity Pressure Visibility Wind Dir Wind Speed Gust Speed Precip Events Conditions
12:53 AM 73.0 °F - 69.1 °F 87% 30.05 in 10.0 mi Calm Calm - N/A   Clear
1:53 AM 72.0 °F - 68.0 °F 87% 30.06 in 10.0 mi Calm Calm - N/A   Clear
2:53 AM 71.1 °F - 66.9 °F 87% 30.06 in 10.0 mi Calm Calm - N/A   Clear
3:53 AM 70.0 °F - 66.9 °F 90% 30.06 in 10.0 mi Calm Calm - N/A   Clear
4:53 AM 69.1 °F - 66.9 °F 93% 30.06 in 10.0 mi Calm Calm - N/A   Clear
5:53 AM 68.0 °F - 66.0 °F 93% 30.08 in 10.0 mi Calm Calm - N/A   Clear
6:53 AM 68.0 °F - 66.0 °F 93% 30.09 in 8.0 mi Calm Calm - N/A   Clear
7:53 AM 72.0 °F - 69.1 °F 91% 30.11 in 10.0 mi Calm Calm - N/A   Clear
8:53 AM 78.1 °F - 70.0 °F 76% 30.12 in 10.0 mi SW 3.5 mph - N/A   Clear
9:53 AM 82.9 °F 87.0 °F 70.0 °F 65% 30.12 in 10.0 mi SW 3.5 mph - N/A   Clear
10:53 AM 86.0 °F 90.1 °F 69.1 °F 57% 30.12 in 10.0 mi Variable 5.8 mph - N/A   Clear
11:53 AM 88.0 °F 91.4 °F 68.0 °F 51% 30.12 in 10.0 mi Calm Calm - N/A   Clear
12:53 PM 91.0 °F 95.2 °F 68.0 °F 47% 30.10 in 10.0 mi Calm Calm - N/A   Clear
1:53 PM 91.9 °F 95.9 °F 68.0 °F 45% 30.08 in 10.0 mi Calm Calm - N/A   Clear
2:53 PM 90.0 °F 94.5 °F 69.1 °F 50% 30.06 in 10.0 mi ESE 4.6 mph - N/A   Partly Cloudy
3:53 PM 93.0 °F 97.4 °F 68.0 °F 44% 30.05 in 10.0 mi SE 3.5 mph - N/A   Clear
4:53 PM 91.9 °F 95.9 °F 68.0 °F 45% 30.03 in 10.0 mi Calm Calm - N/A   Clear
5:53 PM 91.9 °F 98.4 °F 71.1 °F 50% 30.03 in 10.0 mi ESE 4.6 mph - N/A   Clear
6:53 PM 89.1 °F 98.0 °F 73.9 °F 61% 30.03 in 10.0 mi ESE 4.6 mph - N/A   Clear
7:53 PM 82.0 °F 88.6 °F 75.0 °F 79% 30.03 in 10.0 mi ESE 3.5 mph - N/A   Clear
8:53 PM 82.9 °F 88.8 °F 73.0 °F 72% 30.05 in 10.0 mi SSE 4.6 mph - N/A   Mostly Cloudy
9:53 PM 80.1 °F 84.2 °F 73.0 °F 79% 30.07 in 10.0 mi East 3.5 mph - N/A   Mostly Cloudy
10:53 PM 78.1 °F - 73.0 °F 84% 30.07 in 10.0 mi SSE 3.5 mph - N/A   Mostly Cloudy
11:53 PM 78.1 °F - 72.0 °F 81% 30.08 in 10.0 mi Calm Calm - N/A   Clear